Year,Month,Day,Hour,Minute,Value (Times are PST for temperature in C)
2020,11,24,00,00,6.40
2020,11,24,00,01,6.40
2020,11,24,00,02,6.40
2020,11,24,00,03,6.40
2020,11,24,00,04,6.40
2020,11,24,00,05,6.40
2020,11,24,00,06,6.40
2020,11,24,00,07,6.40
2020,11,24,00,08,6.40
2020,11,24,00,09,6.40
2020,11,24,00,10,6.40
2020,11,24,00,11,6.40
2020,11,24,00,12,6.40
2020,11,24,00,13,6.40
2020,11,24,00,14,6.40
2020,11,24,00,15,6.40
2020,11,24,00,16,6.40
2020,11,24,00,17,6.40
2020,11,24,00,18,6.50
2020,11,24,00,19,6.50
2020,11,24,00,20,6.50
2020,11,24,00,21,6.50
2020,11,24,00,22,6.50
2020,11,24,00,23,6.50
2020,11,24,00,24,6.60
2020,11,24,00,25,6.60
2020,11,24,00,26,6.60
2020,11,24,00,27,6.60
2020,11,24,00,28,6.60
2020,11,24,00,29,6.60
2020,11,24,00,30,6.60
2020,11,24,00,31,6.70
2020,11,24,00,32,6.70
2020,11,24,00,33,6.70
2020,11,24,00,34,6.70
2020,11,24,00,35,6.70
2020,11,24,00,36,6.70
2020,11,24,00,37,6.70
2020,11,24,00,38,6.70
2020,11,24,00,39,6.70
2020,11,24,00,40,6.70
2020,11,24,00,41,6.70
2020,11,24,00,42,6.70
2020,11,24,00,43,6.70
2020,11,24,00,44,6.70
2020,11,24,00,45,6.70
2020,11,24,00,46,6.70
2020,11,24,00,47,6.70
2020,11,24,00,48,6.70
2020,11,24,00,49,6.70
2020,11,24,00,50,6.70
2020,11,24,00,51,6.70
2020,11,24,00,52,6.70
2020,11,24,00,53,6.70
2020,11,24,00,54,6.70
2020,11,24,00,55,6.70
2020,11,24,00,56,6.70
2020,11,24,00,57,6.70
2020,11,24,00,58,6.70
2020,11,24,00,59,6.70
2020,11,24,01,00,6.70
2020,11,24,01,01,6.70
2020,11,24,01,02,6.70
2020,11,24,01,03,6.70
2020,11,24,01,04,6.70
2020,11,24,01,05,6.70
2020,11,24,01,06,6.70
2020,11,24,01,07,6.70
2020,11,24,01,08,6.70
2020,11,24,01,09,6.70
2020,11,24,01,10,6.70
2020,11,24,01,11,6.70
2020,11,24,01,12,6.70
2020,11,24,01,13,6.70
2020,11,24,01,14,6.70
2020,11,24,01,15,6.70
2020,11,24,01,16,6.70
2020,11,24,01,17,6.70
2020,11,24,01,18,6.70
2020,11,24,01,19,6.70
2020,11,24,01,20,6.70
2020,11,24,01,21,6.70
2020,11,24,01,22,6.70
2020,11,24,01,23,6.70
2020,11,24,01,24,6.70
2020,11,24,01,25,6.70
2020,11,24,01,26,6.70
2020,11,24,01,27,6.70
2020,11,24,01,28,6.70
2020,11,24,01,29,6.70
2020,11,24,01,30,6.70
2020,11,24,01,31,6.70
2020,11,24,01,32,6.70
2020,11,24,01,33,6.70
2020,11,24,01,34,6.70
2020,11,24,01,35,6.70
2020,11,24,01,36,6.70
2020,11,24,01,37,6.70
2020,11,24,01,38,6.70
2020,11,24,01,39,6.70
2020,11,24,01,40,6.80
2020,11,24,01,41,6.80
2020,11,24,01,42,6.80
2020,11,24,01,43,6.80
2020,11,24,01,44,6.70
2020,11,24,01,45,6.70
2020,11,24,01,46,6.70
2020,11,24,01,47,6.70
2020,11,24,01,48,6.70
2020,11,24,01,49,6.70
2020,11,24,01,50,6.70
2020,11,24,01,51,6.70
2020,11,24,01,52,6.70
2020,11,24,01,53,6.70
2020,11,24,01,54,6.70
2020,11,24,01,55,6.60
2020,11,24,01,56,6.70
2020,11,24,01,57,6.60
2020,11,24,01,58,6.60
2020,11,24,01,59,6.60
2020,11,24,02,00,6.60
2020,11,24,02,01,6.60
2020,11,24,02,02,6.60
2020,11,24,02,03,6.60
2020,11,24,02,04,6.60
2020,11,24,02,05,6.60
2020,11,24,02,06,6.60
2020,11,24,02,07,6.60
2020,11,24,02,08,6.70
2020,11,24,02,09,6.70
2020,11,24,02,10,6.70
2020,11,24,02,11,6.70
2020,11,24,02,12,6.70
2020,11,24,02,13,6.70
2020,11,24,02,14,6.70
2020,11,24,02,15,6.70
2020,11,24,02,16,6.70
2020,11,24,02,17,6.70
2020,11,24,02,18,6.70
2020,11,24,02,19,6.70
2020,11,24,02,20,6.70
2020,11,24,02,21,6.70
2020,11,24,02,22,6.70
2020,11,24,02,23,6.70
2020,11,24,02,24,6.70
2020,11,24,02,25,6.70
2020,11,24,02,26,6.70
2020,11,24,02,27,6.70
2020,11,24,02,28,6.70
2020,11,24,02,29,6.70
2020,11,24,02,30,6.70
2020,11,24,02,31,6.70
2020,11,24,02,32,6.70
2020,11,24,02,33,6.70
2020,11,24,02,34,6.70
2020,11,24,02,35,6.70
2020,11,24,02,36,6.70
2020,11,24,02,37,6.70
2020,11,24,02,38,6.70
2020,11,24,02,39,6.70
2020,11,24,02,40,6.70
2020,11,24,02,41,6.70
2020,11,24,02,42,6.70
2020,11,24,02,43,6.70
2020,11,24,02,44,6.70
2020,11,24,02,45,6.70
2020,11,24,02,46,6.70
2020,11,24,02,47,6.70
2020,11,24,02,48,6.70
2020,11,24,02,49,6.70
2020,11,24,02,50,6.70
2020,11,24,02,51,6.70
2020,11,24,02,52,6.70
2020,11,24,02,53,6.70
2020,11,24,02,54,6.70
2020,11,24,02,55,6.70
2020,11,24,02,56,6.70
2020,11,24,02,57,6.70
2020,11,24,02,58,6.70
2020,11,24,02,59,6.70
2020,11,24,03,00,6.70
2020,11,24,03,01,6.70
2020,11,24,03,02,6.70
2020,11,24,03,03,6.70
2020,11,24,03,04,6.70
2020,11,24,03,05,6.70
2020,11,24,03,06,6.70
2020,11,24,03,07,6.70
2020,11,24,03,08,6.70
2020,11,24,03,09,6.70
2020,11,24,03,10,6.70
2020,11,24,03,11,6.70
2020,11,24,03,12,6.70
2020,11,24,03,13,6.70
2020,11,24,03,14,6.70
2020,11,24,03,15,6.70
2020,11,24,03,16,6.70
2020,11,24,03,17,6.70
2020,11,24,03,18,6.60
2020,11,24,03,19,6.70
2020,11,24,03,20,6.70
2020,11,24,03,21,6.70
2020,11,24,03,22,6.60
2020,11,24,03,23,6.70
2020,11,24,03,24,6.60
2020,11,24,03,25,6.60
2020,11,24,03,26,6.60
2020,11,24,03,27,6.60
2020,11,24,03,28,6.60
2020,11,24,03,29,6.60
2020,11,24,03,30,6.60
2020,11,24,03,31,6.60
2020,11,24,03,32,6.60
2020,11,24,03,33,6.60
2020,11,24,03,34,6.60
2020,11,24,03,35,6.60
2020,11,24,03,36,6.60
2020,11,24,03,37,6.60
2020,11,24,03,38,6.60
2020,11,24,03,39,6.60
2020,11,24,03,40,6.60
2020,11,24,03,41,6.60
2020,11,24,03,42,6.60
2020,11,24,03,43,6.60
2020,11,24,03,44,6.60
2020,11,24,03,45,6.60
2020,11,24,03,46,6.60
2020,11,24,03,47,6.60
2020,11,24,03,48,6.60
2020,11,24,03,49,6.60
2020,11,24,03,50,6.60
2020,11,24,03,51,6.60
2020,11,24,03,52,6.60
2020,11,24,03,53,6.60
2020,11,24,03,54,6.60
2020,11,24,03,55,6.60
2020,11,24,03,56,6.60
2020,11,24,03,57,6.60
2020,11,24,03,58,6.60
2020,11,24,03,59,6.60
2020,11,24,04,00,6.60
2020,11,24,04,01,6.60
2020,11,24,04,02,6.60
2020,11,24,04,03,6.60
2020,11,24,04,04,6.60
2020,11,24,04,05,6.60
2020,11,24,04,06,6.60
2020,11,24,04,07,6.60
2020,11,24,04,08,6.60
2020,11,24,04,09,6.60
2020,11,24,04,10,6.60
2020,11,24,04,11,6.60
2020,11,24,04,12,6.60
2020,11,24,04,13,6.60
2020,11,24,04,14,6.60
2020,11,24,04,15,6.60
2020,11,24,04,16,6.60
2020,11,24,04,17,6.60
2020,11,24,04,18,6.60
2020,11,24,04,19,6.60
2020,11,24,04,20,6.60
2020,11,24,04,21,6.60
2020,11,24,04,22,6.60
2020,11,24,04,23,6.60
2020,11,24,04,24,6.60
2020,11,24,04,25,6.60
2020,11,24,04,26,6.60
2020,11,24,04,27,6.60
2020,11,24,04,28,6.60
2020,11,24,04,29,6.60
2020,11,24,04,30,6.60
2020,11,24,04,31,6.60
2020,11,24,04,32,6.60
2020,11,24,04,33,6.60
2020,11,24,04,34,6.60
2020,11,24,04,35,6.60
2020,11,24,04,36,6.60
2020,11,24,04,37,6.60
2020,11,24,04,38,6.60
2020,11,24,04,39,6.60
2020,11,24,04,40,6.60
2020,11,24,04,41,6.60
2020,11,24,04,42,6.60
2020,11,24,04,43,6.60
2020,11,24,04,44,6.60
2020,11,24,04,45,6.60
2020,11,24,04,46,6.60
2020,11,24,04,47,6.60
2020,11,24,04,48,6.60
2020,11,24,04,49,6.60
2020,11,24,04,50,6.60
2020,11,24,04,51,6.60
2020,11,24,04,52,6.60
2020,11,24,04,53,6.60
2020,11,24,04,54,6.60
2020,11,24,04,55,6.60
2020,11,24,04,56,6.60
2020,11,24,04,57,6.60
2020,11,24,04,58,6.60
2020,11,24,04,59,6.60
2020,11,24,05,00,6.60
2020,11,24,05,01,6.60
2020,11,24,05,02,6.60
2020,11,24,05,03,6.60
2020,11,24,05,04,6.60
2020,11,24,05,05,6.60
2020,11,24,05,06,6.60
2020,11,24,05,07,6.60
2020,11,24,05,08,6.60
2020,11,24,05,09,6.60
2020,11,24,05,10,6.70
2020,11,24,05,11,6.70
2020,11,24,05,12,6.70
2020,11,24,05,13,6.70
2020,11,24,05,14,6.70
2020,11,24,05,15,6.70
2020,11,24,05,16,6.70
2020,11,24,05,17,6.70
2020,11,24,05,18,6.70
2020,11,24,05,19,6.70
2020,11,24,05,20,6.70
2020,11,24,05,21,6.70
2020,11,24,05,22,6.70
2020,11,24,05,23,6.70
2020,11,24,05,24,6.70
2020,11,24,05,25,6.70
2020,11,24,05,26,6.70
2020,11,24,05,27,6.70
2020,11,24,05,28,6.70
2020,11,24,05,29,6.70
2020,11,24,05,30,6.70
2020,11,24,05,31,6.70
2020,11,24,05,32,6.70
2020,11,24,05,33,6.70
2020,11,24,05,34,6.70
2020,11,24,05,35,6.70
2020,11,24,05,36,6.70
2020,11,24,05,37,6.70
2020,11,24,05,38,6.70
2020,11,24,05,39,6.70
2020,11,24,05,40,6.70
2020,11,24,05,41,6.70
2020,11,24,05,42,6.70
2020,11,24,05,43,6.70
2020,11,24,05,44,6.70
2020,11,24,05,45,6.70
2020,11,24,05,46,6.70
2020,11,24,05,47,6.70
2020,11,24,05,48,6.70
2020,11,24,05,49,6.70
2020,11,24,05,50,6.70
2020,11,24,05,51,6.70
2020,11,24,05,52,6.70
2020,11,24,05,53,6.70
2020,11,24,05,54,6.70
2020,11,24,05,55,6.70
2020,11,24,05,56,6.70
2020,11,24,05,57,6.70
2020,11,24,05,58,6.70
2020,11,24,05,59,6.80
2020,11,24,06,00,6.80
2020,11,24,06,01,6.80
2020,11,24,06,02,6.80
2020,11,24,06,03,6.80
2020,11,24,06,04,6.80
2020,11,24,06,05,6.80
2020,11,24,06,06,6.80
2020,11,24,06,07,6.80
2020,11,24,06,08,6.80
2020,11,24,06,09,6.80
2020,11,24,06,10,6.80
2020,11,24,06,11,6.80
2020,11,24,06,12,6.90
2020,11,24,06,13,6.90
2020,11,24,06,14,6.90
2020,11,24,06,15,6.90
2020,11,24,06,16,6.90
2020,11,24,06,17,6.90
2020,11,24,06,18,6.90
2020,11,24,06,19,6.90
2020,11,24,06,20,6.90
2020,11,24,06,21,7.00
2020,11,24,06,22,7.00
2020,11,24,06,23,7.00
2020,11,24,06,24,7.00
2020,11,24,06,25,7.00
2020,11,24,06,26,7.00
2020,11,24,06,27,7.00
2020,11,24,06,28,7.00
2020,11,24,06,29,7.10
2020,11,24,06,30,7.10
2020,11,24,06,31,7.10
2020,11,24,06,32,7.10
2020,11,24,06,33,7.10
2020,11,24,06,34,7.10
2020,11,24,06,35,7.10
2020,11,24,06,36,7.10
2020,11,24,06,37,7.10
2020,11,24,06,38,7.10
2020,11,24,06,39,7.10
2020,11,24,06,40,7.10
2020,11,24,06,41,7.10
2020,11,24,06,42,7.00
2020,11,24,06,43,7.10
2020,11,24,06,44,7.10
2020,11,24,06,45,7.10
2020,11,24,06,46,7.10
2020,11,24,06,47,7.10
2020,11,24,06,48,7.10
2020,11,24,06,49,7.10
2020,11,24,06,50,7.10
2020,11,24,06,51,7.10
2020,11,24,06,52,7.10
2020,11,24,06,53,7.10
2020,11,24,06,54,7.10
2020,11,24,06,55,7.10
2020,11,24,06,56,7.10
2020,11,24,06,57,7.10
2020,11,24,06,58,7.10
2020,11,24,06,59,7.10
2020,11,24,07,00,7.10
2020,11,24,07,01,7.10
2020,11,24,07,02,7.10
2020,11,24,07,03,7.10
2020,11,24,07,04,7.10
2020,11,24,07,05,7.10
2020,11,24,07,06,7.10
2020,11,24,07,07,7.10
2020,11,24,07,08,7.10
2020,11,24,07,09,7.10
2020,11,24,07,10,7.10
2020,11,24,07,11,7.10
2020,11,24,07,12,7.10
2020,11,24,07,13,7.10
2020,11,24,07,14,7.10
2020,11,24,07,15,7.10
2020,11,24,07,16,7.10
2020,11,24,07,17,7.10
2020,11,24,07,18,7.10
2020,11,24,07,19,7.10
2020,11,24,07,20,7.10
2020,11,24,07,21,7.10
2020,11,24,07,22,7.10
2020,11,24,07,23,7.10
2020,11,24,07,24,7.10
2020,11,24,07,25,7.10
2020,11,24,07,26,7.20
2020,11,24,07,27,7.20
2020,11,24,07,28,7.20
2020,11,24,07,29,7.20
2020,11,24,07,30,7.20
2020,11,24,07,31,7.20
2020,11,24,07,32,7.20
2020,11,24,07,33,7.20
2020,11,24,07,34,7.20
2020,11,24,07,35,7.20
2020,11,24,07,36,7.20
2020,11,24,07,37,7.20
2020,11,24,07,38,7.20
2020,11,24,07,39,7.20
2020,11,24,07,40,7.20
2020,11,24,07,41,7.20
2020,11,24,07,42,7.20
2020,11,24,07,43,7.20
2020,11,24,07,44,7.20
2020,11,24,07,45,7.20
2020,11,24,07,46,7.30
2020,11,24,07,47,7.30
2020,11,24,07,48,7.30
2020,11,24,07,49,7.30
2020,11,24,07,50,7.30
2020,11,24,07,51,7.30
2020,11,24,07,52,7.30
2020,11,24,07,53,7.30
2020,11,24,07,54,7.30
2020,11,24,07,55,7.30
2020,11,24,07,56,7.30
2020,11,24,07,57,7.30
2020,11,24,07,58,7.30
2020,11,24,07,59,7.30
2020,11,24,08,00,7.30
2020,11,24,08,01,7.30
2020,11,24,08,02,7.30
2020,11,24,08,03,7.30
2020,11,24,08,04,7.30
2020,11,24,08,05,7.30
2020,11,24,08,06,7.30
2020,11,24,08,07,7.30
2020,11,24,08,08,7.30
2020,11,24,08,09,7.30
2020,11,24,08,10,7.30
2020,11,24,08,11,7.30
2020,11,24,08,12,7.30
2020,11,24,08,13,7.30
2020,11,24,08,14,7.30
2020,11,24,08,15,7.30
2020,11,24,08,16,7.30
2020,11,24,08,17,7.30
2020,11,24,08,18,7.30
2020,11,24,08,19,7.30
2020,11,24,08,20,7.30
2020,11,24,08,21,7.30
2020,11,24,08,22,7.30
2020,11,24,08,23,7.30
2020,11,24,08,24,7.30
2020,11,24,08,25,7.30
2020,11,24,08,26,7.30
2020,11,24,08,27,7.30
2020,11,24,08,28,7.30
2020,11,24,08,29,7.30
2020,11,24,08,30,7.30
2020,11,24,08,31,7.20
2020,11,24,08,32,7.20
2020,11,24,08,33,7.20
2020,11,24,08,34,7.20
2020,11,24,08,35,7.20
2020,11,24,08,36,7.20
2020,11,24,08,37,7.20
2020,11,24,08,38,7.20
2020,11,24,08,39,7.20
2020,11,24,08,40,7.20
2020,11,24,08,41,7.20
2020,11,24,08,42,7.20
2020,11,24,08,43,7.20
2020,11,24,08,44,7.20
2020,11,24,08,45,7.20
2020,11,24,08,46,7.20
2020,11,24,08,47,7.20
2020,11,24,08,48,7.20
2020,11,24,08,49,7.20
2020,11,24,08,50,7.20
2020,11,24,08,51,7.10
2020,11,24,08,52,7.10
2020,11,24,08,53,7.20
2020,11,24,08,54,7.10
2020,11,24,08,55,7.10
2020,11,24,08,56,7.10
2020,11,24,08,57,7.10
2020,11,24,08,58,7.20
2020,11,24,08,59,7.10
2020,11,24,09,00,7.10
2020,11,24,09,01,7.10
2020,11,24,09,02,7.10
2020,11,24,09,03,7.10
2020,11,24,09,04,7.20
2020,11,24,09,05,7.10
2020,11,24,09,06,7.10
2020,11,24,09,07,7.10
2020,11,24,09,08,7.10
2020,11,24,10,47,7.30
2020,11,24,10,48,7.40
2020,11,24,10,49,7.40
2020,11,24,10,50,7.40
2020,11,24,10,51,7.40
2020,11,24,10,52,7.40
2020,11,24,10,53,7.40
2020,11,24,10,54,7.40
2020,11,24,10,55,7.40
2020,11,24,10,56,7.40
2020,11,24,10,57,7.50
2020,11,24,10,58,7.50
2020,11,24,10,59,7.50
2020,11,24,11,00,7.50
2020,11,24,11,01,7.50
2020,11,24,11,02,7.50
2020,11,24,11,03,7.50
2020,11,24,11,04,7.50
2020,11,24,11,05,7.60
2020,11,24,11,06,7.60
2020,11,24,11,07,7.60
2020,11,24,11,08,7.60
2020,11,24,11,09,7.60
2020,11,24,11,10,7.60
2020,11,24,11,11,7.60
2020,11,24,11,12,7.60
2020,11,24,11,13,7.70
2020,11,24,11,14,7.70
2020,11,24,11,15,7.70
2020,11,24,11,16,7.70
2020,11,24,11,17,7.70
2020,11,24,11,18,7.70
2020,11,24,11,19,7.70
2020,11,24,11,20,7.70
2020,11,24,11,21,7.70
2020,11,24,11,22,7.70
2020,11,24,11,23,7.70
2020,11,24,11,24,7.70
2020,11,24,11,25,7.70
2020,11,24,11,26,7.70
2020,11,24,11,27,7.70
2020,11,24,11,28,7.70
2020,11,24,11,29,7.80
2020,11,24,11,30,7.80
2020,11,24,11,31,7.80
2020,11,24,11,32,7.80
2020,11,24,11,33,7.80
2020,11,24,11,34,7.80
2020,11,24,11,35,7.80
2020,11,24,11,36,7.80
2020,11,24,11,37,7.80
2020,11,24,11,38,7.80
2020,11,24,11,39,7.80
2020,11,24,11,40,7.80
2020,11,24,11,41,7.80
2020,11,24,11,42,7.80
2020,11,24,11,43,7.80
2020,11,24,11,44,7.80
2020,11,24,11,45,7.80
2020,11,24,11,46,7.80
2020,11,24,11,47,7.80
2020,11,24,11,48,7.80
2020,11,24,11,49,7.80
2020,11,24,11,50,7.80
2020,11,24,11,51,7.90
2020,11,24,11,52,7.90
2020,11,24,11,53,7.90
2020,11,24,11,54,7.90
2020,11,24,11,55,7.90
2020,11,24,11,56,7.90
2020,11,24,11,57,7.90
2020,11,24,11,58,7.90
2020,11,24,11,59,7.90
2020,11,24,12,00,7.90
2020,11,24,12,01,7.90
2020,11,24,12,02,7.90
2020,11,24,12,03,7.90
2020,11,24,12,04,7.90
2020,11,24,12,05,7.90
2020,11,24,12,06,7.90
2020,11,24,12,07,7.90
2020,11,24,12,08,7.90
2020,11,24,12,09,7.90
2020,11,24,12,10,7.90
2020,11,24,12,11,7.90
2020,11,24,12,12,7.90
2020,11,24,12,13,7.90
2020,11,24,12,14,7.90
2020,11,24,12,15,7.90
2020,11,24,12,16,7.90
2020,11,24,12,17,7.90
2020,11,24,12,18,7.90
2020,11,24,12,19,7.90
2020,11,24,12,20,7.90
2020,11,24,12,21,7.90
2020,11,24,12,22,7.90
2020,11,24,12,23,7.90
2020,11,24,12,24,7.90
2020,11,24,12,25,7.90
2020,11,24,12,26,7.90
2020,11,24,12,27,7.90
2020,11,24,12,28,7.90
2020,11,24,12,29,7.90
2020,11,24,12,30,7.90
2020,11,24,12,31,7.90
2020,11,24,12,32,7.90
2020,11,24,12,33,7.90
2020,11,24,12,34,7.90
2020,11,24,12,35,7.90
2020,11,24,12,36,7.90
2020,11,24,12,37,7.90
2020,11,24,12,38,7.90
2020,11,24,12,39,7.90
2020,11,24,12,40,7.90
2020,11,24,12,41,7.90
2020,11,24,12,42,7.90
2020,11,24,12,43,7.90
2020,11,24,12,44,7.90
2020,11,24,12,45,7.90
2020,11,24,12,46,7.90
2020,11,24,12,47,7.90
2020,11,24,12,48,7.90
2020,11,24,12,49,7.90
2020,11,24,12,50,7.90
2020,11,24,12,51,7.90
2020,11,24,12,52,7.90
2020,11,24,12,53,7.90
2020,11,24,12,54,7.90
2020,11,24,12,55,7.90
2020,11,24,12,56,7.90
2020,11,24,12,57,7.90
2020,11,24,12,58,7.90
2020,11,24,12,59,7.90
2020,11,24,13,00,7.90
2020,11,24,13,01,7.90
2020,11,24,13,02,7.90
2020,11,24,13,03,7.90
2020,11,24,13,04,7.90
2020,11,24,13,05,7.90
2020,11,24,13,06,7.90
2020,11,24,13,07,7.90
2020,11,24,13,08,7.90
2020,11,24,13,09,7.90
2020,11,24,13,10,7.90
2020,11,24,13,11,7.90
2020,11,24,13,12,7.90
2020,11,24,13,13,7.90
2020,11,24,13,14,7.90
2020,11,24,13,15,7.90
2020,11,24,13,16,7.90
2020,11,24,13,17,7.90
2020,11,24,13,18,7.90
2020,11,24,13,19,8.00
2020,11,24,13,20,8.00
2020,11,24,13,21,8.00
2020,11,24,13,22,7.90
2020,11,24,13,23,7.90
2020,11,24,13,24,7.90
2020,11,24,13,25,7.90
2020,11,24,13,26,7.90
2020,11,24,13,27,7.90
2020,11,24,13,28,7.90
2020,11,24,13,29,7.90
2020,11,24,13,30,7.90
2020,11,24,13,31,7.90
2020,11,24,13,32,7.90
2020,11,24,13,33,7.90
2020,11,24,13,34,7.80
2020,11,24,13,35,7.80
2020,11,24,13,36,7.90
2020,11,24,13,37,7.80
2020,11,24,13,38,7.80
2020,11,24,13,39,7.80
2020,11,24,13,40,7.80
2020,11,24,13,41,7.80
2020,11,24,13,42,7.80
2020,11,24,13,43,7.80
2020,11,24,13,44,7.80
2020,11,24,13,45,7.70
2020,11,24,13,46,7.70
2020,11,24,13,47,7.70
2020,11,24,13,48,7.60
2020,11,24,13,49,7.60
2020,11,24,13,50,7.60
2020,11,24,13,51,7.60
2020,11,24,13,52,7.50
2020,11,24,13,53,7.50
2020,11,24,13,54,7.50
2020,11,24,13,55,7.50
2020,11,24,13,56,7.50
2020,11,24,13,57,7.50
2020,11,24,13,58,7.40
2020,11,24,13,59,7.40
2020,11,24,14,00,7.40
2020,11,24,14,01,7.40
2020,11,24,14,02,7.40
2020,11,24,14,03,7.40
2020,11,24,14,04,7.30
2020,11,24,14,05,7.30
2020,11,24,14,06,7.30
2020,11,24,14,07,7.30
2020,11,24,14,08,7.30
2020,11,24,14,09,7.30
2020,11,24,14,10,7.30
2020,11,24,14,11,7.30
2020,11,24,14,12,7.20
2020,11,24,14,13,7.20
2020,11,24,14,14,7.20
2020,11,24,14,15,7.20
2020,11,24,14,16,7.20
2020,11,24,14,17,7.20
2020,11,24,14,18,7.20
2020,11,24,14,19,7.20
2020,11,24,14,20,7.20
2020,11,24,14,21,7.20
2020,11,24,14,22,7.10
2020,11,24,14,23,7.10
2020,11,24,14,24,7.10
2020,11,24,14,25,7.10
2020,11,24,14,26,7.10
2020,11,24,14,27,7.10
2020,11,24,14,28,7.10
2020,11,24,14,29,7.10
2020,11,24,14,30,7.10
2020,11,24,14,31,7.10
2020,11,24,14,32,7.10
2020,11,24,14,33,7.00
2020,11,24,14,34,7.00
2020,11,24,14,35,7.00
2020,11,24,14,36,6.90
2020,11,24,14,37,6.90
2020,11,24,14,38,6.90
2020,11,24,14,39,6.90
2020,11,24,14,40,6.80
2020,11,24,14,41,6.80
2020,11,24,14,42,6.80
2020,11,24,14,43,6.70
2020,11,24,14,44,6.70
2020,11,24,14,45,6.70
2020,11,24,14,46,6.70
2020,11,24,14,47,6.70
2020,11,24,14,48,6.60
2020,11,24,14,49,6.60
2020,11,24,14,50,6.60
2020,11,24,14,51,6.60
2020,11,24,14,52,6.60
2020,11,24,14,53,6.60
2020,11,24,14,54,6.60
2020,11,24,14,55,6.50
2020,11,24,14,56,6.50
2020,11,24,14,57,6.50
2020,11,24,14,58,6.50
2020,11,24,14,59,6.50
2020,11,24,15,00,6.50
2020,11,24,15,01,6.50
2020,11,24,15,02,6.50
2020,11,24,15,03,6.50
2020,11,24,15,04,6.50
2020,11,24,15,05,6.50
2020,11,24,15,06,6.50
2020,11,24,15,07,6.50
2020,11,24,15,08,6.50
2020,11,24,15,09,6.50
2020,11,24,15,10,6.40
2020,11,24,15,11,6.50
2020,11,24,15,12,6.40
2020,11,24,15,13,6.50
2020,11,24,15,14,6.50
2020,11,24,15,15,6.40
2020,11,24,15,16,6.40
2020,11,24,15,17,6.40
2020,11,24,15,18,6.40
2020,11,24,15,19,6.40
2020,11,24,15,20,6.40
2020,11,24,15,21,6.40
2020,11,24,15,22,6.30
2020,11,24,15,23,6.30
2020,11,24,15,24,6.30
2020,11,24,15,25,6.30
2020,11,24,15,26,6.20
2020,11,24,15,27,6.20
2020,11,24,15,28,6.10
2020,11,24,15,29,6.00
2020,11,24,15,30,6.00
2020,11,24,15,31,5.90
2020,11,24,15,32,5.90
2020,11,24,15,33,5.80
2020,11,24,15,34,5.80
2020,11,24,15,35,5.80
2020,11,24,15,36,5.70
2020,11,24,15,37,5.70
2020,11,24,15,38,5.70
2020,11,24,15,39,5.70
2020,11,24,15,40,5.70
2020,11,24,15,41,5.70
2020,11,24,15,42,5.70
2020,11,24,15,43,5.70
2020,11,24,15,44,5.70
2020,11,24,15,45,5.70
2020,11,24,15,46,5.70
2020,11,24,15,47,5.70
2020,11,24,15,48,5.70
2020,11,24,15,49,5.70
2020,11,24,15,50,5.80
2020,11,24,15,51,5.80
2020,11,24,15,52,5.80
2020,11,24,15,53,5.80
2020,11,24,15,54,5.70
2020,11,24,15,55,5.70
2020,11,24,15,56,5.70
2020,11,24,15,57,5.70
2020,11,24,15,58,5.70
2020,11,24,15,59,5.70
2020,11,24,16,00,5.70
2020,11,24,16,01,5.70
2020,11,24,16,02,5.70
2020,11,24,16,03,5.70
2020,11,24,16,04,5.70
2020,11,24,16,05,5.70
2020,11,24,16,06,5.70
2020,11,24,16,07,5.70
2020,11,24,16,08,5.70
2020,11,24,16,09,5.70
2020,11,24,16,10,5.60
2020,11,24,16,11,5.60
2020,11,24,16,12,5.60
2020,11,24,16,13,5.60
2020,11,24,16,14,5.60
2020,11,24,16,15,5.60
2020,11,24,16,16,5.60
2020,11,24,16,17,5.60
2020,11,24,16,18,5.50
2020,11,24,16,19,5.50
2020,11,24,16,20,5.50
2020,11,24,16,21,5.50
2020,11,24,16,22,5.40
2020,11,24,16,23,5.40
2020,11,24,16,24,5.40
2020,11,24,16,25,5.40
2020,11,24,16,26,5.40
2020,11,24,16,27,5.30
2020,11,24,16,28,5.30
2020,11,24,16,29,5.30
2020,11,24,16,30,5.30
2020,11,24,16,31,5.30
2020,11,24,16,32,5.20
2020,11,24,16,33,5.20
2020,11,24,16,34,5.20
2020,11,24,16,35,5.20
2020,11,24,16,36,5.10
2020,11,24,16,37,5.10
2020,11,24,16,38,5.10
2020,11,24,16,39,5.10
2020,11,24,16,40,5.00
2020,11,24,16,41,5.00
2020,11,24,16,42,5.00
2020,11,24,16,43,5.00
2020,11,24,16,44,4.90
2020,11,24,16,45,4.90
2020,11,24,16,46,4.90
2020,11,24,16,47,4.90
2020,11,24,16,48,4.80
2020,11,24,16,49,4.80
2020,11,24,16,50,4.80
2020,11,24,16,51,4.80
2020,11,24,16,52,4.80
2020,11,24,16,53,4.80
2020,11,24,16,54,4.80
2020,11,24,16,55,4.80
2020,11,24,16,56,4.80
2020,11,24,16,57,4.80
2020,11,24,16,58,4.80
2020,11,24,16,59,4.70
2020,11,24,17,00,4.70
2020,11,24,17,01,4.70
2020,11,24,17,02,4.70
2020,11,24,17,03,4.70
2020,11,24,17,04,4.70
2020,11,24,17,05,4.70
2020,11,24,17,06,4.60
2020,11,24,17,07,4.60
2020,11,24,17,08,4.60
2020,11,24,17,09,4.60
2020,11,24,17,10,4.60
2020,11,24,17,11,4.60
2020,11,24,17,12,4.50
2020,11,24,17,13,4.50
2020,11,24,17,14,4.50
2020,11,24,17,15,4.50
2020,11,24,17,16,4.40
2020,11,24,17,17,4.40
2020,11,24,17,18,4.40
2020,11,24,17,19,4.40
2020,11,24,17,20,4.30
2020,11,24,17,21,4.30
2020,11,24,17,22,4.30
2020,11,24,17,23,4.30
2020,11,24,17,24,4.30
2020,11,24,17,25,4.20
2020,11,24,17,26,4.20
2020,11,24,17,27,4.20
2020,11,24,17,28,4.20
2020,11,24,17,29,4.20
2020,11,24,17,30,4.20
2020,11,24,17,31,4.20
2020,11,24,17,32,4.20
2020,11,24,17,33,4.20
2020,11,24,17,34,4.20
2020,11,24,17,35,4.30
2020,11,24,17,36,4.30
2020,11,24,17,37,4.30
2020,11,24,17,38,4.30
2020,11,24,17,39,4.30
2020,11,24,17,40,4.30
2020,11,24,17,41,4.30
2020,11,24,17,42,4.20
2020,11,24,17,43,4.20
2020,11,24,17,44,4.20
2020,11,24,17,45,4.20
2020,11,24,17,46,4.20
2020,11,24,17,47,4.30
2020,11,24,17,48,4.30
2020,11,24,17,49,4.40
2020,11,24,17,50,4.40
2020,11,24,17,51,4.50
2020,11,24,17,52,4.50
2020,11,24,17,53,4.50
2020,11,24,17,54,4.50
2020,11,24,17,55,4.50
2020,11,24,17,56,4.40
2020,11,24,17,57,4.40
2020,11,24,17,58,4.40
2020,11,24,17,59,4.40
2020,11,24,18,00,4.30
2020,11,24,18,01,4.30
2020,11,24,18,02,4.30
2020,11,24,18,03,4.30
2020,11,24,18,04,4.30
2020,11,24,18,05,4.20
2020,11,24,18,06,4.20
2020,11,24,18,07,4.20
2020,11,24,18,08,4.20
2020,11,24,18,09,4.10
2020,11,24,18,10,4.10
2020,11,24,18,11,4.10
2020,11,24,18,12,4.00
2020,11,24,18,13,4.00
2020,11,24,18,14,4.00
2020,11,24,18,15,3.90
2020,11,24,18,16,3.90
2020,11,24,18,17,3.90
2020,11,24,18,18,3.90
2020,11,24,18,19,3.90
2020,11,24,18,20,3.90
2020,11,24,18,21,3.80
2020,11,24,18,22,3.80
2020,11,24,18,23,3.80
2020,11,24,18,24,3.80
2020,11,24,18,25,3.80
2020,11,24,18,26,3.80
2020,11,24,18,27,3.80
2020,11,24,18,28,3.80
2020,11,24,18,29,3.80
2020,11,24,18,30,3.80
2020,11,24,18,31,3.80
2020,11,24,18,32,3.70
2020,11,24,18,33,3.70
2020,11,24,18,34,3.70
2020,11,24,18,35,3.70
2020,11,24,18,36,3.70
2020,11,24,18,37,3.60
2020,11,24,18,38,3.60
2020,11,24,18,39,3.60
2020,11,24,18,40,3.50
2020,11,24,18,41,3.50
2020,11,24,18,42,3.40
2020,11,24,18,43,3.40
2020,11,24,18,44,3.40
2020,11,24,18,45,3.40
2020,11,24,18,46,3.50
2020,11,24,18,47,3.50
2020,11,24,18,48,3.60
2020,11,24,18,49,3.70
2020,11,24,18,50,3.80
2020,11,24,18,51,3.90
2020,11,24,18,52,3.90
2020,11,24,18,53,3.90
2020,11,24,18,54,3.90
2020,11,24,18,55,3.90
2020,11,24,18,56,3.90
2020,11,24,18,57,4.00
2020,11,24,18,58,4.00
2020,11,24,18,59,3.90
2020,11,24,19,00,3.90
2020,11,24,19,01,4.00
2020,11,24,19,02,4.00
2020,11,24,19,03,4.00
2020,11,24,19,04,4.10
2020,11,24,19,05,4.20
2020,11,24,19,06,4.30
2020,11,24,19,07,4.30
2020,11,24,19,08,4.40
2020,11,24,19,09,4.50
2020,11,24,19,10,4.50
2020,11,24,19,11,4.50
2020,11,24,19,12,4.40
2020,11,24,19,13,4.40
2020,11,24,19,14,4.30
2020,11,24,19,15,4.20
2020,11,24,19,16,4.20
2020,11,24,19,17,4.10
2020,11,24,19,18,4.10
2020,11,24,19,19,4.10
2020,11,24,19,20,4.00
2020,11,24,19,21,3.90
2020,11,24,19,22,3.90
2020,11,24,19,23,3.80
2020,11,24,19,24,3.80
2020,11,24,19,25,3.70
2020,11,24,19,26,3.70
2020,11,24,19,27,3.70
2020,11,24,19,28,3.60
2020,11,24,19,29,3.60
2020,11,24,19,30,3.60
2020,11,24,19,31,3.60
2020,11,24,19,32,3.60
2020,11,24,19,33,3.50
2020,11,24,19,34,3.50
2020,11,24,19,35,3.50
2020,11,24,19,36,3.50
2020,11,24,19,37,3.50
2020,11,24,19,38,3.40
2020,11,24,19,39,3.40
2020,11,24,19,40,3.40
2020,11,24,19,41,3.40
2020,11,24,19,42,3.40
2020,11,24,19,43,3.40
2020,11,24,19,44,3.40